カタログに戻る

DELTA 2 R/B

unknownVLEO
NORAD 37803·ROCKET BODY·🇺🇸 United States

打ち上げ Sep 10, 2011 から Cape Canaveral Space Force Station

Loading…

次のパス (今後24時間)

TLE

古いSource: Space-Track

元期: Sep 10, 2011, 14:16 UTC

1 37803U 11046C   11253.59467199 +.00002457 -77678-5 +00000-0 0  9994
2 37803 028.5000 009.1212 0000200 263.4759 096.5843 16.41337653000016

AllMySatでDELTA 2 R/Bをリアルタイム追跡

Download on the App Store